User: anonymous   Login
Location: Lucerne Valley
(34.4439°N, 116.9669°E)
Time: 04:34:06
(UTC-08:00)
Language:

Hubble Space Telescope - Orbit

View from above orbital plane
View from above orbital plane
View from above satellite
View from above satellite

Ground track
Ground track

The orbit data is extracted from the following two-line orbital elements,

1 20580U 90037B   18019.44734708 +.00000476 +00000-0 +18246-4 0  9992
2 20580 028.4708 018.3069 0002583 345.8643 144.9293 15.08965195322899
Epoch (UTC): 19 January 2018 10:44:10
Eccentricity: 0.0002583
inclination: 28.4708°
perigee height: 537 km
apogee height: 541 km
right ascension of ascending node: 18.3069°
argument of perigee: 345.8643°
revolutions per day: 15.08965195
mean anomaly at epoch: 144.9293°
orbit number at epoch: 32289

The dashed part of the orbit path shows where the satellite is in the earth's shadow,  

DLR